Weather in Saratan

Russia / Altai Republic     50°31′16″N   88°15′47″E
temp.,
°C
wind,
m/s
gust,
m/s
humid.,
%
clouds,
%
prec.,
mm/h
press.,
hPa
HPBL,
m
11 may, tue
tue1101:00+3ene118033 0.0 101046
04:00+2sw0183100 0.2 100978
07:00+2se129157 0.9 1011222
10:00+7ese1265100 0.0 1007846
13:00+10e224999 1.1 10041575
16:00+4nnw2291100 4.4 1007477
19:00+4ne1191100 6.3 1009405
22:00+3nne1193100 0.6 1011245
12 may, wed
wed1201:00+2n1198100 1.3 1012312
04:00+1nw1299100 2.4 1012111
07:00+1nw11100100 6.5 101398
10:00+1nnw1299100 1.5 1012178
13:00+2nw229897 2.0 1012232
16:00+3nw2287100 0.8 1010672
19:000wnw22100100 3.7 1013109
22:000nw23100100 3.2 1015143
13 may, thu
thu1301:000wnw2399100 4.7 1016129
04:00−1nw2399100 2.1 1016152
07:00−1nw1299100 2.8 1018159
10:00+1nw129293 0.3 1017471
13:00+4wnw227492 0.9 10141095
16:00+5wnw126997 0.9 1013952
19:00+4wnw117419 1.4 1013361
22:00−2s11885 0.3 101712
14 may, fri
fri1401:00−2sse118889 0.3 101713
04:00−2sse1191100 0.0 101613
07:00+1se1182100 0.0 101484
10:00+5nnw1171100 0.1 1012753
13:00+6nw2267100 1.4 10121084
16:00+7nw236384 1.1 10121262
19:00+1w2399100 5.3 1018198
22:00+1nw2299100 0.7 1022121
15 may, sat
sat1501:000nw129998 0.9 1025161
04:00−1wnw129795 0.2 1026138
07:00−1wnw118899 0.3 1027332
10:000nw107888 0.0 1027569
13:00+6n116392 0.1 1023929
16:00+8nw225536 0.0 10211231
19:00+7wnw11598 0.0 1021593
22:00+2sse11775 0.0 102410